OBJECT A, 69472

Orbit data source: Space-Track

You're viewing an Uncataloged Satellite

Recently launched and/or uncataloged satellites may have evolving metadata. Metadata may include but not limited to: Owner, Maufacturer, Bus, Motor, and Mission.

OBJECT A, 69472 is a Chinese satellite in LEO that was launched on Tue, 09 Jun 2026 UTC via a ZHUQUE-2E launch vehicle from the Jiuquan Satellite Launch Center, China (JSC). Unknown objects in Earth's orbit typically refer to objects detected orbiting the Earth but have not yet been identified or cataloged. These objects could be anything from previously untracked satellites, spent rocket stages, debris from satellite collisions, or even natural meteoroids temporarily captured by Earth's gravity.

Loading next visibility...
Identifier
69472, 2026-128A
Orbit
LEO
Country
Flag of CNCN / PRC
Related business
Manufacturer
SECM
Mission
Operational spacecraft
Bus & Motor
QIANFAN, Unknown motor
Mass
300 kg wet, ~270 kg dry
Launch date (UTC)
2026-06-09 (2 months ago)
Launch vehicle
ZHUQUE-2E
Launch site
Jiuquan Satellite Launch Center, China (JSC)
Object type
Unknown
Shape & HBR
BOX+PAN, 1.1 m
Radar Cross Section
Large (>1 m²)

Expand to show TLE details & history
Last TLE update: 7 hours ago

TLE from 7 hours ago
0 OBJECT A
1 69472U 26128A   26207.58211520  .00031441  00000-0  48193-3 0  9999
2 69472  55.0016 123.4237 0012796  36.8692 323.3221 15.54022349  7354
Epoch: 2026-07-26T13:58Z
TLE epoch observation values (Epoch: 2026-07-26T13:58:14.753Z)
Latitude
0.00005°
Longitude
-30.41572°
Altitude
399.146 km
Speed
7.676 km/s
True Right ascension
08h 13m 41s
True Declination
0° 00' 00"
Sunlit
Object was in daylight at epoch
Visualization orbit readout
Latitude
Unknown
Longitude
Unknown
Altitude
Unknown
Speed
Unknown
Apparent Right ascension
Unknown
Apparent Declination
Unknown
Sunlit
N/A
Visualization observer readout
Local Sidereal Time
09:56:03
Azimuth
Unknown
Elevation
Unknown
Doppler factor
Unknown
Orbital elements
Apogee altitude
413.637 km
Perigee altitude
396.278 km
Semi-major axis
6,783.095 km
Eccentricity
0.00128
Inclination
55.0016°
RAAN
123.4237°
Arg. of periapsis
36.8692°
True anomaly
323.2344°
Mean anomaly
323.3221°
Eccentric anomaly
323.27826°
Mean motion
3.88509 °/min
Orbital period
92.66 mins
BSTAR
0.00048193
Loading maneuver chart data...
Computing Atmospheric mass density...
Loading historical data...
Loading historical data...
Loading historical data...
Loading historical data...
Loading historical data...
Loading historical data...
Loading historical data...

Documentation

Showing up to 5 results
|